Weather Service Report


198 
ASUS42 KFFC 241403
RWRGA 
WEATHER ROUNDUP FOR GEORGIA
NATIONAL WEATHER SERVICE PEACHTREE CITY GA
1000 AM EDT FRI MAR 24 2017

NOTE: "FAIR" INDICATES FEW OR NO CLOUDS BELOW 12,000 FEET WITH NO
SIGNIFICANT WEATHER AND/OR OBSTRUCTIONS TO VISIBILITY. 

* = USE WITH CAUTION. THE STATIONS MARKED WITH AN ASTERISK MAY NOT
REPORT WEATHER SUCH AS PRECIPITATION, FOG, OR THUNDER AND ARE NOT 
QUALITY CONTROLLED BY NWS.

THE REMARK "TC" DENOTES TEMPERATURE READING IN DEGREES CELSIUS.

GAZ001>058-241500-
NORTH GEORGIA
  
CITY           SKY/WX    TMP DP  RH WIND       PRES   REMARKS
ATLANTA        PTSUNNY   56  47  71 E8        30.44S                  
ATHENS         CLOUDY    53  42  66 E5        30.48R                  
CHAMBLEE       CLOUDY    55  44  66 VRB3      30.45S                  
PEACHTREE CITY CLOUDY    57  49  74 E8        30.44R                  
ROME           CLOUDY    59  44  57 SE7       30.41R                  
WEST ATLANTA   CLOUDY    56  45  66 E8        30.45R                  
GAINESVILLE    CLOUDY    51  42  71 E9        30.49R                  
CARTERSVILLE   CLOUDY    57  46  66 E8        30.43S                  

  
CITY           SKY/WX    TMP DP  RH WIND       PRES   REMARKS
DALTON*        CLOUDY    55  45  67 SE12      30.42S                  
LAWRENCEVILLE* PTSUNNY   54  45  71 E7        30.47S                  
MARIETTA       CLOUDY    56  46  69 E12       30.44R                  
KENNESAW*      PTSUNNY   55  45  67 SE12      30.46R                  
CANTON*        CLOUDY    54  36  50 E7        30.47R                  
$$

GAZ059>098-102>109-241500-
CENTRAL GEORGIA
  
CITY           SKY/WX    TMP DP  RH WIND       PRES   REMARKS
AUGUSTA-BUSH   SUNNY     59  46  62 E5        30.48S                  
AUGUSTA-DANIEL SUNNY     57  43  59 E7        30.48S                  
COLUMBUS       CLOUDY    60  50  69 SE10      30.41R                  
MACON          PTSUNNY   56  49  77 SE7       30.45S                  
ROBINS AFB     CLOUDY    58  50  73 SE5       30.44S                  

  
CITY           SKY/WX    TMP DP  RH WIND       PRES   REMARKS
LAGRANGE*      CLOUDY    59  55  85 SE7       30.42R                  
SYLVANIA*      SUNNY    N/A N/A N/A SE5       30.47F                  
MILLEDGEVILLE* CLOUDY    55  48  76 CALM      30.47R                  
$$

GAZ099>101-110>166-241500-
SOUTH GEORGIA
  
CITY           SKY/WX    TMP DP  RH WIND       PRES   REMARKS
SAVANNAH       SUNNY     61  50  67 NE5       30.47S                  
VALDOSTA       SUNNY     61  53  75 E8        30.41S                  
ALMA           SUNNY     61  53  75 E7        30.43S                  
ST SIMONS      SUNNY     68  56  65 E9        30.43S                  
FT STEWART     SUNNY     62  50  64 E6        30.43F                  
ALBANY         CLOUDY    61  53  75 E6        30.44R                  
HUNTER AFB     SUNNY     63  55  74 NE3       30.44S                  
MOODY AFB      SUNNY     61  53  74 NE6       30.41R                  
BRUNSWICK      SUNNY     68  61  77 NE6       30.44F                  

  
CITY           SKY/WX    TMP DP  RH WIND       PRES   REMARKS
BAINBRIDGE*    SUNNY     61  54  77 E9        30.40S                  
MOULTRIE*      SUNNY     61  54  77 E7        30.42R                  
VIDALIA*       SUNNY     63  52  67 E8        30.45F                  
WAYCROSS*      SUNNY     65  59  80 SE8       30.43S                  
DOUGLAS*       SUNNY     61  50  67 E3        30.44S                  
$$
  

Return to Home page


Western Regional Climate Center, wrcc@dri.edu